Weather History for Wahpeton, ND

Change the Weather History Date:

Monday, July 8, 2013

  Actual Average (KFFM) Record (KFFM)
Temperature  
Mean Temperature 70 °F -  
Max Temperature 86 °F 81 °F 95 °F (1974)
Min Temperature 55 °F 59 °F 44 °F (1958)
Cooling Degree Days 6    
Growing Degree Days 20 (Base 50)    
Moisture  
Dew Point 58 °F    
Average Humidity 62    
Maximum Humidity 88    
Minimum Humidity 35    
Precipitation  
Precipitation 0.00 in - - ()
Sea Level Pressure  
Sea Level Pressure 29.96 in    
Wind  
Wind Speed 3 mph (SSE)    
Max Wind Speed 8 mph    
Max Gust Speed -    
Visibility 10 miles    
Events      
Averages and records for this station are not official NWS values.
T = Trace of Precipitation, MM = Missing Value Source: NWS Daily Summary

Daily Weather History Graph

Daily Weather History Graph

Search for Another Location

Airport:

Trip Planner

Search our weather history database for the weather conditions in past years. The results will help you decide how hot, cold, wet, or windy it might be!

Date:

Astronomy

Jul. 08, 2013 Rise Set
Actual Time 5:43 AM CDT 9:19 PM CDT
Civil Twilight 5:05 AM CDT 9:57 PM CDT
Nautical Twilight 4:14 AM CDT 10:47 PM CDT
Astronomical Twilight 3:06 AM CDT 11:54 PM CDT
Moon 6:19 AM CDT (7/8) 9:15 PM CDT (7/8)
Length of Visible Light 16h 51m
Length of Day
15h 35m
New Moon, 0% of the Moon is Illuminated
Jul 8
New Moon
Jul 15
First Quarter
Jul 22
Full
Jul 29
Last Quarter
Aug 6
New

Hourly Weather History & Observations

Time (CDT) Temp. Heat Index Dew Point Humidity Pressure Visibility Wind Dir Wind Speed Gust Speed Precip Events Conditions
12:15 AM 59.0 °F - 55.4 °F 88% 29.98 in 10.0 mi West 3.5 mph - N/A   Clear
12:35 AM 59.0 °F - 53.6 °F 82% 29.99 in 10.0 mi Calm Calm - N/A   Clear
12:55 AM 59.0 °F - 55.4 °F 88% 29.98 in 10.0 mi West 3.5 mph - N/A   Clear
1:15 AM 59.0 °F - 53.6 °F 82% 29.98 in 10.0 mi WNW 4.6 mph - N/A   Clear
1:35 AM 59.0 °F - 53.6 °F 82% 29.98 in 10.0 mi WNW 3.5 mph - N/A   Clear
1:55 AM 59.0 °F - 53.6 °F 82% 29.98 in 10.0 mi Calm Calm - N/A   Clear
2:15 AM 60.8 °F - 55.4 °F 82% 29.97 in 10.0 mi Calm Calm - N/A   Clear
2:35 AM 59.0 °F - 55.4 °F 88% 29.96 in 10.0 mi Calm Calm - N/A   Clear
2:55 AM 59.0 °F - 53.6 °F 82% 29.96 in 10.0 mi Calm Calm - N/A   Clear
3:15 AM 57.2 °F - 53.6 °F 88% 29.98 in 10.0 mi NW 4.6 mph - N/A   Clear
3:35 AM 55.4 °F - 51.8 °F 88% 29.98 in 10.0 mi NW 4.6 mph - N/A   Clear
3:55 AM 57.2 °F - 53.6 °F 88% 29.98 in 10.0 mi NW 3.5 mph - N/A   Clear
4:15 AM 59.0 °F - 53.6 °F 82% 29.98 in 10.0 mi NW 3.5 mph - N/A   Clear
4:35 AM 59.0 °F - 53.6 °F 82% 29.98 in 10.0 mi Calm Calm - N/A   Clear
4:55 AM 59.0 °F - 53.6 °F 82% 29.98 in 10.0 mi Calm Calm - N/A   Clear
5:15 AM 57.2 °F - 53.6 °F 88% 29.97 in 10.0 mi Calm Calm - N/A   Clear
5:55 AM 59.0 °F - 53.6 °F 82% 29.96 in 10.0 mi NNE 5.8 mph - N/A   Clear
6:15 AM 60.8 °F - 55.4 °F 82% 29.97 in 10.0 mi Calm Calm - N/A   Clear
6:35 AM 60.8 °F - 55.4 °F 82% 29.98 in 10.0 mi Calm Calm - N/A   Clear
6:55 AM 62.6 °F - 57.2 °F 82% 29.98 in 10.0 mi Calm Calm - N/A   Clear
7:15 AM 64.4 °F - 59.0 °F 83% 29.99 in 10.0 mi Calm Calm - N/A   Clear
7:35 AM 68.0 °F - 59.0 °F 73% 29.99 in 10.0 mi Calm Calm - N/A   Clear
7:55 AM 69.8 °F - 59.0 °F 68% 29.99 in 10.0 mi Calm Calm - N/A   Clear
8:15 AM 69.8 °F - 59.0 °F 68% 30.00 in 10.0 mi Calm Calm - N/A   Clear
8:35 AM 71.6 °F - 60.8 °F 69% 30.00 in 10.0 mi East 4.6 mph - N/A   Clear
8:55 AM 73.4 °F - 60.8 °F 65% 30.00 in 10.0 mi East 4.6 mph - N/A   Clear
9:15 AM 73.4 °F - 60.8 °F 65% 30.01 in 10.0 mi ESE 4.6 mph - N/A   Clear
9:35 AM 75.2 °F - 59.0 °F 57% 30.01 in 10.0 mi SE 3.5 mph - N/A   Clear
9:55 AM 77.0 °F - 60.8 °F 57% 30.01 in 10.0 mi SE 3.5 mph - N/A   Clear
10:15 AM 77.0 °F - 60.8 °F 57% 30.00 in 10.0 mi SE 4.6 mph - N/A   Clear
10:35 AM 78.8 °F - 60.8 °F 54% 30.00 in 10.0 mi SE 5.8 mph - N/A   Clear
10:55 AM 78.8 °F - 59.0 °F 51% 30.00 in 10.0 mi SE 5.8 mph - N/A   Clear
11:15 AM 78.8 °F - 59.0 °F 51% 29.99 in 10.0 mi ESE 5.8 mph - N/A   Clear
11:35 AM 80.6 °F 80.8 °F 57.2 °F 45% 29.99 in 10.0 mi SE 4.6 mph - N/A   Clear
11:55 AM 80.6 °F 80.8 °F 57.2 °F 45% 29.99 in 10.0 mi SE 5.8 mph - N/A   Clear
12:15 PM 80.6 °F 80.5 °F 55.4 °F 42% 29.99 in 10.0 mi South 6.9 mph - N/A   Clear
12:35 PM 80.6 °F 80.5 °F 55.4 °F 42% 29.99 in 10.0 mi SSE 4.6 mph - N/A   Clear
12:55 PM 80.6 °F 81.1 °F 59.0 °F 48% 29.99 in 10.0 mi SE 5.8 mph - N/A   Clear
1:15 PM 82.4 °F 81.7 °F 55.4 °F 39% 29.99 in 10.0 mi South 4.6 mph - N/A   Clear
1:35 PM 82.4 °F 82.5 °F 59.0 °F 45% 29.99 in 10.0 mi SE 8.1 mph - N/A   Clear
1:55 PM 82.4 °F 82.5 °F 59.0 °F 45% 29.99 in 10.0 mi SSE 5.8 mph - N/A   Clear
2:15 PM 82.4 °F 82.0 °F 57.2 °F 42% 29.98 in 10.0 mi Calm Calm - N/A   Clear
2:35 PM 82.4 °F 81.7 °F 55.4 °F 39% 29.98 in 7.0 mi South 4.6 mph - N/A   Clear
2:55 PM 84.2 °F 83.0 °F 55.4 °F 37% 29.97 in 10.0 mi SE 4.6 mph - N/A   Clear
3:15 PM 86.0 °F 84.5 °F 55.4 °F 35% 29.96 in 10.0 mi South 5.8 mph - N/A   Scattered Clouds
3:35 PM 86.0 °F 84.5 °F 55.4 °F 35% 29.96 in 10.0 mi SSW 5.8 mph - N/A   Clear
3:55 PM 86.0 °F 84.5 °F 55.4 °F 35% 29.96 in 10.0 mi South 4.6 mph - N/A   Scattered Clouds
4:15 PM 86.0 °F 84.9 °F 57.2 °F 37% 29.96 in 10.0 mi SW 8.1 mph - N/A   Scattered Clouds
4:35 PM 86.0 °F 84.9 °F 57.2 °F 37% 29.96 in 10.0 mi SW 6.9 mph - N/A   Scattered Clouds
4:55 PM 84.2 °F 83.5 °F 57.2 °F 40% 29.95 in 10.0 mi SSW 6.9 mph - N/A   Scattered Clouds
5:15 PM 84.2 °F 83.8 °F 59.0 °F 42% 29.95 in 10.0 mi SSW 4.6 mph - N/A   Scattered Clouds
5:35 PM 86.0 °F 85.4 °F 59.0 °F 40% 29.94 in 10.0 mi SSW 4.6 mph - N/A   Clear
5:55 PM 86.0 °F 84.5 °F 55.4 °F 35% 29.94 in 10.0 mi South 6.9 mph - N/A   Clear
6:15 PM 84.2 °F 83.8 °F 59.0 °F 42% 29.93 in 10.0 mi South 4.6 mph - N/A   Clear
6:35 PM 82.4 °F 82.9 °F 60.8 °F 48% 29.92 in 10.0 mi SSE 5.8 mph - N/A   Clear
6:55 PM 84.2 °F 84.4 °F 60.8 °F 45% 29.92 in 10.0 mi South 4.6 mph - N/A   Clear
7:15 PM 84.2 °F 83.8 °F 59.0 °F 42% 29.92 in 10.0 mi SSW 8.1 mph - N/A   Clear
7:35 PM 84.2 °F 84.4 °F 60.8 °F 45% 29.92 in 10.0 mi South 5.8 mph - N/A   Clear
7:55 PM 82.4 °F 82.9 °F 60.8 °F 48% 29.91 in 10.0 mi South 4.6 mph - N/A   Clear
8:15 PM 80.6 °F 81.8 °F 62.6 °F 54% 29.91 in 10.0 mi South 3.5 mph - N/A   Clear
8:35 PM 78.8 °F - 62.6 °F 57% 29.91 in 10.0 mi South 4.6 mph - N/A   Clear
8:55 PM 77.0 °F - 62.6 °F 61% 29.91 in 10.0 mi Calm Calm - N/A   Clear
9:15 PM 73.4 °F - 62.6 °F 69% 29.90 in 10.0 mi ESE 4.6 mph - N/A   Clear
9:35 PM 75.2 °F - 62.6 °F 65% 29.91 in 10.0 mi SE 4.6 mph - N/A   Clear
9:55 PM 73.4 °F - 62.6 °F 69% 29.92 in 10.0 mi SE 5.8 mph - N/A   Clear
10:15 PM 71.6 °F - 62.6 °F 73% 29.94 in 10.0 mi SSE 5.8 mph - N/A   Clear
10:35 PM 71.6 °F - 62.6 °F 73% 29.93 in 10.0 mi SE 5.8 mph - N/A   Clear
10:55 PM 71.6 °F - 62.6 °F 73% 29.93 in 10.0 mi SE 5.8 mph - N/A   Clear
11:15 PM 71.6 °F - 60.8 °F 69% 29.93 in 10.0 mi SE 5.8 mph - N/A   Clear
11:35 PM 73.4 °F - 60.8 °F 65% 29.92 in 10.0 mi SE 5.8 mph - N/A   Clear
11:55 PM 71.6 °F - 60.8 °F 69% 29.92 in 10.0 mi SE 5.8 mph - N/A   Clear